Limon, CO

2:36 AM MDT on October 01, 2016 (GMT -0600)
Limon Municipal

Weather History for KLIC - August, 2013

Change the Weather History Date:

Saturday, August 3, 2013

  Actual Average Record
Temperature  
Mean Temperature 74 °F -  
Max Temperature 86 °F - 98 °F (2008)
Min Temperature 61 °F - 52 °F (2005)
Degree Days  
Heating Degree Days 0    
Month to date heating degree days 0  
Cooling Degree Days 9    
Month to date cooling degree days 26  
Growing Degree Days 22 (Base 50)    
Moisture  
Dew Point 64 °F    
Average Humidity 74    
Maximum Humidity 100    
Minimum Humidity 47    
Precipitation  
Precipitation 0.39 in - 1.03 in (2005)
Month to date precipitation 0.45  
Year to date precipitation 9.56  
Sea Level Pressure  
Sea Level Pressure 30.12 in    
Wind  
Wind Speed 9 mph (SE)    
Max Wind Speed 36 mph    
Max Gust Speed 45 mph    
Visibility 8 miles    
Events Rain , Thunderstorm    
T = Trace of Precipitation, MM = Missing Value Source: NWS Daily Summary

Daily Weather History Graph

Daily Weather History Graph

Search for Another Location

Airport or City:

Trip Planner

Search our weather history database for the weather conditions in past years. The results will help you decide how hot, cold, wet, or windy it might be!

Date:

Astronomy

Aug. 03, 2013 Rise Set
Actual Time 5:56 AM MDT 8:04 PM MDT
Civil Twilight 5:27 AM MDT 8:33 PM MDT
Nautical Twilight 4:50 AM MDT 9:10 PM MDT
Astronomical Twilight 4:11 AM MDT 9:49 PM MDT
Moon 3:08 AM MDT (8/3) 5:48 PM MDT (8/3)
Length of Visible Light 15h 06m
Length of Day
14h 07m
Waning Crescent, 9% of the Moon is Illuminated
Aug 3
Waning Crescent
Aug 6
New
Aug 14
First Quarter
Aug 20
Full
Aug 28
Last Quarter

Hourly Weather History & Observations

Time (MDT) Temp. Heat Index Dew Point Humidity Pressure Visibility Wind Dir Wind Speed Gust Speed Precip Events Conditions
12:55 AM 64.9 °F - 63.0 °F 93% 29.91 in 10.0 mi ESE 4.6 mph - N/A   Clear
1:55 AM 64.9 °F - 63.0 °F 93% 29.91 in 10.0 mi SE 5.8 mph - N/A   Clear
2:55 AM 64.0 °F - 63.0 °F 96% 29.91 in 10.0 mi SSE 5.8 mph - N/A   Clear
3:55 AM 62.1 °F - 61.0 °F 96% 29.91 in 9.0 mi Calm Calm - N/A   Clear
4:52 AM 62.6 °F - 62.6 °F 100% 30.17 in 5.0 mi ESE 5.8 mph - N/A   Scattered Clouds
4:55 AM 64.0 °F - 64.0 °F 100% 29.91 in 5.0 mi ESE 5.8 mph - N/A   Mostly Cloudy
5:26 AM 66.2 °F - 66.2 °F 100% 30.17 in 4.0 mi ESE 8.1 mph - N/A   Overcast
5:39 AM 66.2 °F - 66.2 °F 100% 30.17 in 4.0 mi SE 8.1 mph - N/A   Overcast
5:55 AM 66.0 °F - 66.0 °F 100% 29.92 in 3.0 mi SE 6.9 mph - N/A   Overcast
6:05 AM 66.2 °F - 66.2 °F 100% 30.18 in 2.5 mi SE 5.8 mph - N/A   Overcast
6:55 AM 66.9 °F - 66.9 °F 100% 29.95 in 2.0 mi SE 9.2 mph - N/A   Overcast
7:02 AM 66.2 °F - 66.2 °F 100% 30.19 in 3.0 mi SE 8.1 mph - N/A   Overcast
7:39 AM 68.0 °F - 66.2 °F 94% 30.19 in 4.0 mi SE 11.5 mph - N/A   Mostly Cloudy
7:46 AM 68.0 °F - 66.2 °F 94% 30.19 in 6.0 mi SE 9.2 mph - N/A   Mostly Cloudy
7:53 AM 69.8 °F - 66.2 °F 88% 30.19 in 6.0 mi SSE 9.2 mph - N/A   Mostly Cloudy
7:55 AM 69.1 °F - 66.9 °F 93% 29.96 in 6.0 mi SE 9.2 mph - N/A   Mostly Cloudy
8:17 AM 69.8 °F - 66.2 °F 88% 30.19 in 8.0 mi SE 10.4 mph - N/A   Scattered Clouds
8:40 AM 71.6 °F - 66.2 °F 83% 30.20 in 9.0 mi SE 11.5 mph - N/A   Mostly Cloudy
8:50 AM 71.6 °F - 66.2 °F 83% 30.20 in 9.0 mi SSE 9.2 mph - N/A   Scattered Clouds
8:55 AM 71.1 °F - 66.0 °F 84% 29.97 in 9.0 mi SSE 10.4 mph - N/A   Scattered Clouds
9:45 AM 75.2 °F - 64.4 °F 69% 30.21 in 10.0 mi SSE 10.4 mph - N/A   Mostly Cloudy
9:55 AM 75.0 °F - 64.9 °F 71% 29.98 in 10.0 mi SSE 11.5 mph - N/A   Mostly Cloudy
10:41 AM 77.0 °F - 64.4 °F 65% 30.20 in 10.0 mi SSE 10.4 mph 17.3 mph N/A   Scattered Clouds
10:55 AM 78.1 °F - 64.9 °F 64% 29.98 in 10.0 mi South 9.2 mph - N/A   Partly Cloudy
11:19 AM 78.8 °F - 64.4 °F 61% 30.21 in 10.0 mi SSE 10.4 mph 19.6 mph N/A   Mostly Cloudy
11:43 AM 80.6 °F 82.3 °F 64.4 °F 58% 30.20 in 10.0 mi SSE 8.1 mph - N/A   Mostly Cloudy
11:55 AM 80.1 °F 81.7 °F 64.0 °F 58% 29.96 in 10.0 mi South 8.1 mph 16.1 mph N/A   Scattered Clouds
12:55 PM 82.0 °F 82.7 °F 61.0 °F 49% 29.96 in 10.0 mi SSE 5.8 mph - N/A   Partly Cloudy
1:55 PM 79.0 °F - 64.0 °F 60% 29.96 in 10.0 mi SE 19.6 mph - N/A   Scattered Clouds
2:55 PM 79.0 °F - 64.9 °F 62% 29.93 in 10.0 mi SE 17.3 mph 23.0 mph N/A   Partly Cloudy
3:55 PM 81.0 °F 81.9 °F 62.1 °F 52% 29.93 in 10.0 mi SE 28.8 mph 38.0 mph 0.00 in   Scattered Clouds
4:44 PM 77.0 °F - 62.6 °F 61% 30.18 in 10.0 mi ESE 27.6 mph 38.0 mph N/A Thunderstorm Mostly Cloudy
4:55 PM 75.0 °F - 61.0 °F 62% 29.97 in 10.0 mi ESE 28.8 mph 40.3 mph N/A Thunderstorm Thunderstorm
5:42 PM 69.8 °F - 62.6 °F 78% 30.19 in 10.0 mi East 28.8 mph 42.6 mph N/A Thunderstorm Thunderstorm
5:55 PM 69.1 °F - 62.1 °F 78% 29.98 in 10.0 mi East 26.5 mph 44.9 mph N/A Thunderstorm Thunderstorm
6:52 PM 64.4 °F - 62.6 °F 94% 30.25 in 9.0 mi East 17.3 mph - 0.01 in Rain , Thunderstorm Light Rain
6:55 PM 64.0 °F - 63.0 °F 96% 30.06 in 10.0 mi East 17.3 mph 23.0 mph 0.01 in Rain , Thunderstorm Light Rain
7:20 PM 64.4 °F - 62.6 °F 94% 30.27 in 9.0 mi East 15.0 mph - 0.02 in Rain , Thunderstorm Light Rain
7:40 PM 62.6 °F - 62.6 °F 100% 30.29 in 5.0 mi ESE 17.3 mph 25.3 mph 0.04 in Rain , Thunderstorm Rain
7:55 PM 63.0 °F - 62.1 °F 97% 30.10 in 5.0 mi ESE 17.3 mph - 0.08 in Rain , Thunderstorm Light Rain
8:09 PM 62.6 °F - 62.6 °F 100% 30.31 in 6.0 mi ESE 10.4 mph - 0.02 in Rain Light Rain
8:17 PM 62.6 °F - 62.6 °F 100% 30.31 in 6.0 mi ESE 10.4 mph - 0.02 in Rain Light Rain
8:43 PM 62.6 °F - 62.6 °F 100% 30.31 in 6.0 mi ESE 10.4 mph - 0.09 in Rain Rain
8:55 PM 63.0 °F - 62.1 °F 97% 30.12 in 7.0 mi ESE 9.2 mph - 0.11 in Rain Rain
9:04 PM 62.6 °F - 62.6 °F 100% 30.31 in 7.0 mi ESE 9.2 mph - 0.02 in Rain Light Rain
9:12 PM 62.6 °F - 62.6 °F 100% 30.31 in 8.0 mi ESE 10.4 mph - 0.03 in Rain Light Rain
9:55 PM 63.0 °F - 62.1 °F 97% 30.13 in 9.0 mi NE 4.6 mph - 0.11 in Rain Light Rain
10:23 PM 62.6 °F - 62.6 °F 100% 30.35 in 10.0 mi North 6.9 mph - 0.04 in Rain , Thunderstorm Light Rain
10:39 PM 62.6 °F - 62.6 °F 100% 30.35 in 10.0 mi NNW 6.9 mph - 0.05 in Rain Light Rain
10:55 PM 63.0 °F - 63.0 °F 100% 30.12 in 9.0 mi North 6.9 mph - 0.06 in Rain Light Rain
11:55 PM 62.1 °F - 60.1 °F 93% 30.05 in 10.0 mi Calm Calm - 0.02 in   Mostly Cloudy